Location: C.E.K. Mees Observatory
(42.7003°N, 77.4088°W)
Time: 04:11:06
(UTC-04:00)

Envisat - Pass Details

Date: 11 October 2017
Orbit: 764 x 766 km, 98.2° (Epoch: 21 October)

Event Time Altitude Azimuth Distance (km) Brightness Sun altitude
Exits shadow 20:30:43 51° 77° (ENE) 955 3.1 -22.3°
Maximum altitude 20:30:51 52° 71° (ENE) 953 3.1 -22.3°
Drops below altitude 10° 20:35:46 10° 357° (N) 2,310 5.6 -23.2°
Sets 20:38:07 0° 352° (N) 3,240 6.5 -23.6°
